TimeEST,TemperatureF,Dew PointF,Humidity,Sea Level PressureIn,VisibilityMPH,Wind Direction,Wind SpeedMPH,Gust SpeedMPH,PrecipitationIn,Events,Conditions,WindDirDegrees,DateUTC
12:53 AM,21.9,19.0,89,30.67,5.0,Calm,Calm,-,N/A,,Clear,0,2012-11-19 05:53:00
1:53 AM,21.9,19.0,89,30.66,6.0,Calm,Calm,-,N/A,,Clear,0,2012-11-19 06:53:00
2:53 AM,21.0,18.0,88,30.64,6.0,Calm,Calm,-,N/A,,Clear,0,2012-11-19 07:53:00
3:53 AM,21.0,18.0,88,30.63,8.0,Calm,Calm,-,N/A,,Clear,0,2012-11-19 08:53:00
4:53 AM,21.0,18.0,88,30.62,7.0,Calm,Calm,-,N/A,,Clear,0,2012-11-19 09:53:00
5:53 AM,21.0,18.0,88,30.61,7.0,Calm,Calm,-,N/A,,Clear,0,2012-11-19 10:53:00
6:53 AM,19.0,16.0,88,30.61,5.0,Calm,Calm,-,N/A,,Clear,0,2012-11-19 11:53:00
7:53 AM,23.0,19.0,85,30.60,5.0,Calm,Calm,-,N/A,,Clear,0,2012-11-19 12:53:00
8:53 AM,28.0,24.1,85,30.58,9.0,Calm,Calm,-,N/A,,Clear,0,2012-11-19 13:53:00
9:53 AM,34.0,26.1,73,30.56,10.0,Calm,Calm,-,N/A,,Clear,0,2012-11-19 14:53:00
10:53 AM,39.0,24.1,55,30.52,10.0,Calm,Calm,-,N/A,,Clear,0,2012-11-19 15:53:00
11:53 AM,44.1,14.0,30,30.48,10.0,Calm,Calm,-,N/A,,Clear,0,2012-11-19 16:53:00
12:53 PM,45.0,10.9,25,30.45,10.0,Variable,3.5,-,N/A,,Clear,0,2012-11-19 17:53:00
1:53 PM,46.0,12.9,26,30.43,10.0,Calm,Calm,-,N/A,,Clear,0,2012-11-19 18:53:00
2:53 PM,44.1,10.9,26,30.42,10.0,Variable,3.5,-,N/A,,Clear,0,2012-11-19 19:53:00
3:53 PM,39.9,14.0,35,30.40,10.0,Calm,Calm,-,N/A,,Clear,0,2012-11-19 20:53:00
4:53 PM,30.9,18.0,59,30.40,10.0,Calm,Calm,-,N/A,,Clear,0,2012-11-19 21:53:00
5:53 PM,28.9,18.0,64,30.39,10.0,Calm,Calm,-,N/A,,Clear,0,2012-11-19 22:53:00
6:53 PM,27.0,19.0,72,30.38,10.0,Calm,Calm,-,N/A,,Clear,0,2012-11-19 23:53:00
7:53 PM,27.0,19.0,72,30.36,6.0,Calm,Calm,-,N/A,,Haze,0,2012-11-20 00:53:00
8:53 PM,25.0,19.9,81,30.34,7.0,Calm,Calm,-,N/A,,Clear,0,2012-11-20 01:53:00
10:53 PM,24.1,19.9,84,30.31,5.0,Calm,Calm,-,N/A,,Clear,0,2012-11-20 03:53:00
11:53 PM,21.9,18.0,85,30.30,5.0,Calm,Calm,-,N/A,,Clear,0,2012-11-20 04:53:00